Gainesville, FL

9:54 AM EDT on April 24, 2018 (GMT -0400)
Gainesville Regional

Weather History for KGNV - November, 2014

Change the Weather History Date:

Saturday, November 15, 2014

  Actual Average Record
Temperature  
Mean Temperature 54 °F 63 °F  
Max Temperature 69 °F 75 °F 88 °F (1957)
Min Temperature 38 °F 51 °F 28 °F (1969)
Degree Days  
Heating Degree Days 11 4  
Month to date heating degree days 95 49  
Since 1 July heating degree days 113 76  
Cooling Degree Days 0 2  
Month to date cooling degree days 7 43  
Year to date cooling degree days 2538 2593  
Growing Degree Days 2 (Base 50)    
Moisture  
Dew Point 46 °F    
Average Humidity 79    
Maximum Humidity 100    
Minimum Humidity 58    
Precipitation  
Precipitation 0.00 in 0.06 in 4.08 in (1921)
Month to date precipitation 0.10 1.05  
Year to date precipitation 45.99 43.92  
Snow  
Snow 0.00 in 0.00 in 0.00 in ()
Month to date snowfall 0.0 0.0  
Since 1 July snowfall 0.0 0.0  
Since 1 September snowfall 0.0 0.0  
Snow Depth 0.00 in    
Sea Level Pressure  
Sea Level Pressure 30.24 in    
Wind  
Wind Speed 7 mph (NNE)    
Max Wind Speed 20 mph    
Max Gust Speed 22 mph    
Visibility 10 miles    
Events      
T = Trace of Precipitation, MM = Missing Value Source: NWS Daily Summary

Daily Weather History Graph

Daily Weather History Graph

Search for Another Location

Airport or City:

Astronomy

Nov. 15, 2014 Rise Set
Actual Time 6:53 AM EST 5:33 PM EST
Civil Twilight 6:28 AM EST 5:58 PM EST
Nautical Twilight 5:59 AM EST 6:27 PM EST
Astronomical Twilight 5:31 AM EST 6:55 PM EST
Moon 12:34 AM EST (11/15) 1:28 PM EST (11/15)
Length of Visible Light 11h 30m
Length of Day
10h 39m
Last Quarter, 40% of the Moon is Illuminated
Nov 15
Last Quarter
Nov 22
New
Nov 29
First Quarter
Dec 6
Full
Dec 14
Last Quarter

Hourly Weather History & Observations

Time (EST) Temp. Windchill Dew Point Humidity Pressure Visibility Wind Dir Wind Speed Gust Speed Precip Events Conditions
12:53 AM 39.0 °F 35.7 °F 34.0 °F 82% 30.19 in 10.0 mi NW 4.6 mph - N/A   Clear
1:53 AM 39.0 °F 36.8 °F 35.1 °F 86% 30.19 in 10.0 mi NW 3.5 mph - N/A   Clear
2:53 AM 39.0 °F 36.8 °F 37.0 °F 93% 30.19 in 10.0 mi Variable 3.5 mph - N/A   Clear
3:53 AM 41.0 °F - 37.9 °F 89% 30.19 in 10.0 mi Calm Calm - N/A   Clear
4:53 AM 41.0 °F 38.0 °F 39.0 °F 93% 30.20 in 9.0 mi North 4.6 mph - N/A   Clear
5:53 AM 42.1 °F 39.2 °F 39.0 °F 89% 30.22 in 9.0 mi North 4.6 mph - N/A   Clear
6:53 AM 39.9 °F 37.8 °F 39.0 °F 97% 30.24 in 8.0 mi NNW 3.5 mph - N/A   Clear
7:53 AM 44.1 °F 40.8 °F 41.0 °F 89% 30.27 in 10.0 mi North 5.8 mph - N/A   Clear
8:53 AM 50.0 °F - 44.1 °F 80% 30.29 in 10.0 mi NNE 6.9 mph - N/A   Clear
9:53 AM 55.9 °F - 46.0 °F 69% 30.30 in 10.0 mi NE 8.1 mph - N/A   Clear
10:53 AM 62.1 °F - 48.0 °F 60% 30.29 in 10.0 mi North 10.4 mph - N/A   Clear
11:53 AM 64.0 °F - 51.1 °F 63% 30.27 in 10.0 mi ENE 8.1 mph - N/A   Clear
12:53 PM 66.0 °F - 52.0 °F 60% 30.24 in 10.0 mi ENE 8.1 mph - N/A   Scattered Clouds
1:53 PM 66.0 °F - 52.0 °F 60% 30.22 in 10.0 mi East 6.9 mph - N/A   Mostly Cloudy
2:53 PM 66.9 °F - 52.0 °F 59% 30.20 in 10.0 mi ENE 9.2 mph - N/A   Mostly Cloudy
3:53 PM 63.0 °F - 53.1 °F 70% 30.21 in 10.0 mi NE 13.8 mph - N/A   Overcast
4:53 PM 60.1 °F - 53.1 °F 78% 30.22 in 10.0 mi NE 12.7 mph - N/A   Overcast
5:53 PM 57.0 °F - 51.1 °F 81% 30.23 in 10.0 mi NE 11.5 mph - N/A   Mostly Cloudy
6:53 PM 57.0 °F - 51.1 °F 81% 30.25 in 10.0 mi NE 10.4 mph - N/A   Overcast
7:53 PM 55.0 °F - 51.1 °F 86% 30.27 in 9.0 mi NE 9.2 mph - N/A   Overcast
8:53 PM 55.0 °F - 50.0 °F 83% 30.26 in 10.0 mi NNE 6.9 mph - N/A   Overcast
9:24 PM 54.0 °F - 50.0 °F 86% 30.27 in 10.0 mi NNE 6.9 mph - N/A   Overcast
9:53 PM 54.0 °F - 48.9 °F 83% 30.27 in 10.0 mi NNE 8.1 mph - N/A   Overcast
10:26 PM 53.1 °F - 48.9 °F 86% 30.26 in 10.0 mi NNE 5.8 mph - N/A   Overcast
10:53 PM 53.1 °F - 48.9 °F 86% 30.26 in 10.0 mi NNE 5.8 mph - N/A   Overcast
11:53 PM 51.1 °F - 48.0 °F 89% 30.24 in 10.0 mi NNE 5.8 mph - N/A   Overcast